Location: ?
(35.4214°N, 139.3011°E)
Time: 22:25:23
(UTC+00:00)

Cosmos 2181 Rocket - Pass Details

Date: 14 July 2020
Orbit: 951 x 1015 km, 82.9° (Epoch: 10 August)

Event Time Altitude Azimuth Distance (km) Brightness Sun altitude
Rises 11:32:51 0° 352° (N) 3,691 7.9 -16.5°
Reaches altitude 10° 11:35:23 10° 352° (N) 2,730 7.1 -16.9°
Maximum altitude 11:41:38 84° 266° (W) 974 4.0 -17.8°
Enters shadow 11:46:11 19° 178° (S) 2,097 5.3 -18.5°
